* Astronomy

Members Login
Post Info TOPIC: Asteroid 2004 VK78


L

Posts: 131433
Date:
Asteroid 2004 VK78
Permalink  
 


Orbital elements:
2004 VK78
Epoch 2011 Aug. 27.0 TT = JDT 2455800.5                 MPC
M  17.22200              (2000.0)            P               Q
n   0.00294528     Peri.  312.54438     +0.93895740     -0.34322006
a  48.2005367      Node    67.54128     +0.32266795     +0.85472256
e   0.3360042      Incl.    1.46597     +0.11934987     +0.38942180
P 335              H    7.9           G   0.15           U   4

MPEC 2011 - O32



__________________
Page 1 of 1  sorted by
Quick Reply

Please log in to post quick replies.



Create your own FREE Forum
Report Abuse
Powered by ActiveBoard